Date_Time,Julian_Date,Latitude,Longitude,Instrument_Depth,U,V,Speed,Direction
(yyyy-mm-dd hh:mn:ss UTC),(JD),(+ deg. North),(+ deg. East),(m),(cm/s),(cm/s),(cm/s),(deg True)
1988-07-20 23:00:00 UTC,2447363.458333,28.3100,-92.0967,0011,34.80,-9.98,36.2028,106.0019
1988-07-20 23:30:00 UTC,2447363.479167,28.3100,-92.0967,0011,29.35,-19.06,34.9958,122.9998
1988-07-21 00:00:00 UTC,2447363.500000,28.3100,-92.0967,0011,26.66,-21.59,34.3057,129.0015
1988-07-21 00:30:00 UTC,2447363.520833,28.3100,-92.0967,0011,16.29,-29.39,33.6026,151.0017
1988-07-21 01:00:00 UTC,2447363.541667,28.3100,-92.0967,0011,9.88,-32.32,33.7964,163.0020
1988-07-21 01:30:00 UTC,2447363.562500,28.3100,-92.0967,0011,-2.34,-33.42,33.5018,184.0052
1988-07-21 02:00:00 UTC,2447363.583333,28.3100,-92.0967,0011,-11.79,-30.71,32.8954,201.0025
1988-07-21 02:30:00 UTC,2447363.604167,28.3100,-92.0967,0011,-15.03,-29.49,33.0993,207.0063
1988-07-21 03:00:00 UTC,2447363.625000,28.3100,-92.0967,0011,-15.76,-28.43,32.5060,209.0015
1988-07-21 03:30:00 UTC,2447363.645833,28.3100,-92.0967,0011,-27.73,-12.93,30.5964,245.0012
1988-07-21 04:00:00 UTC,2447363.666667,28.3100,-92.0967,0011,-27.86,-13.59,30.9979,243.9971
1988-07-21 04:30:00 UTC,2447363.687500,28.3100,-92.0967,0011,-27.44,-9.99,29.2019,249.9951
1988-07-21 05:00:00 UTC,2447363.708333,28.3100,-92.0967,0011,-26.49,-11.80,28.9993,245.9894
1988-07-21 05:30:00 UTC,2447363.729167,28.3100,-92.0967,0011,-22.20,-16.73,27.7981,232.9982
1988-07-21 06:00:00 UTC,2447363.750000,28.3100,-92.0967,0011,-25.08,-16.28,29.9006,237.0115
1988-07-21 06:30:00 UTC,2447363.770833,28.3100,-92.0967,0011,-30.98,-1.08,30.9988,268.0034
1988-07-21 07:00:00 UTC,2447363.791667,28.3100,-92.0967,0011,-30.95,8.88,32.1987,286.0090
1988-07-21 07:30:00 UTC,2447363.812500,28.3100,-92.0967,0011,-27.75,6.92,28.5998,284.0022
1988-07-21 08:00:00 UTC,2447363.833333,28.3100,-92.0967,0011,-20.33,15.88,25.7970,307.9938
1988-07-21 08:30:00 UTC,2447363.854167,28.3100,-92.0967,0011,-5.41,9.00,10.5009,328.9895
1988-07-21 09:00:00 UTC,2447363.875000,28.3100,-92.0967,0011,-7.32,13.21,15.1025,331.0081
1988-07-21 09:30:00 UTC,2447363.895833,28.3100,-92.0967,0011,-2.23,18.16,18.2964,352.9993
1988-07-21 10:00:00 UTC,2447363.916667,28.3100,-92.0967,0011,7.68,19.01,20.5027,21.9986
1988-07-21 10:30:00 UTC,2447363.937500,28.3100,-92.0967,0011,10.40,15.42,18.5994,33.9976
1988-07-21 11:00:00 UTC,2447363.958333,28.3100,-92.0967,0011,8.00,6.95,10.5973,49.0175
1988-07-21 11:30:00 UTC,2447363.979167,28.3100,-92.0967,0011,9.24,5.78,10.8989,57.9723
1988-07-21 12:00:00 UTC,2447364.000000,28.3100,-92.0967,0011,16.54,10.33,19.5008,58.0133
1988-07-21 12:30:00 UTC,2447364.020833,28.3100,-92.0967,0011,16.79,9.31,19.1984,60.9918
1988-07-21 13:00:00 UTC,2447364.041667,28.3100,-92.0967,0011,16.13,6.52,17.3979,67.9907
1988-07-21 13:30:00 UTC,2447364.062500,28.3100,-92.0967,0011,17.69,5.07,18.4022,74.0076
1988-07-21 14:00:00 UTC,2447364.083333,28.3100,-92.0967,0011,18.46,5.29,19.2030,74.0095
1988-07-21 14:30:00 UTC,2447364.104167,28.3100,-92.0967,0011,17.22,3.66,17.6047,78.0007
1988-07-21 15:00:00 UTC,2447364.125000,28.3100,-92.0967,0011,18.06,1.26,18.1039,86.0091
1988-07-21 15:30:00 UTC,2447364.145833,28.3100,-92.0967,0011,-1.39,0.19,1.4029,277.7836
1988-07-21 16:00:00 UTC,2447364.166667,28.3100,-92.0967,0011,2.61,-1.00,2.7950,110.9639
1988-07-21 16:30:00 UTC,2447364.187500,28.3100,-92.0967,0011,8.37,-0.73,8.4018,94.9845
1988-07-21 17:00:00 UTC,2447364.208333,28.3100,-92.0967,0011,2.38,-0.77,2.5015,107.9279
1988-07-21 17:30:00 UTC,2447364.229167,28.3100,-92.0967,0011,-0.40,-0.00,0.4000,270.0000
1988-07-21 18:00:00 UTC,2447364.250000,28.3100,-92.0967,0011,10.23,-2.36,10.4987,102.9905
1988-07-21 18:30:00 UTC,2447364.270833,28.3100,-92.0967,0011,-0.59,1.16,1.3014,333.0412
1988-07-21 19:00:00 UTC,2447364.291667,28.3100,-92.0967,0011,-4.37,1.42,4.5949,288.0012
1988-07-21 19:30:00 UTC,2447364.312500,28.3100,-92.0967,0011,4.64,2.57,5.3042,61.0188
1988-07-21 20:00:00 UTC,2447364.333333,28.3100,-92.0967,0011,6.00,3.19,6.7953,62.0019
1988-07-21 20:30:00 UTC,2447364.354167,28.3100,-92.0967,0011,4.60,4.00,6.0959,48.9909
1988-07-21 21:00:00 UTC,2447364.375000,28.3100,-92.0967,0011,0.18,2.59,2.5962,3.9756
1988-07-21 21:30:00 UTC,2447364.395833,28.3100,-92.0967,0011,0.00,2.60,2.6000,0.0000
1988-07-21 22:00:00 UTC,2447364.416667,28.3100,-92.0967,0011,-0.19,1.79,1.8001,353.9410
1988-07-21 22:30:00 UTC,2447364.437500,28.3100,-92.0967,0011,-0.82,1.60,1.7979,332.8649
1988-07-21 23:00:00 UTC,2447364.458333,28.3100,-92.0967,0011,-0.60,-0.00,0.6000,270.0000
1988-07-21 23:30:00 UTC,2447364.479167,28.3100,-92.0967,0011,-0.21,-0.21,0.2970,225.0000
1988-07-22 00:00:00 UTC,2447364.500000,28.3100,-92.0967,0011,-2.06,10.60,10.7983,349.0023
1988-07-22 00:30:00 UTC,2447364.520833,28.3100,-92.0967,0011,1.00,0.00,1.0000,90.0000
1988-07-22 01:00:00 UTC,2447364.541667,28.3100,-92.0967,0011,0.41,1.44,1.4972,15.8928
1988-07-22 01:30:00 UTC,2447364.562500,28.3100,-92.0967,0011,-5.35,9.27,10.7031,330.0094
1988-07-22 02:00:00 UTC,2447364.583333,28.3100,-92.0967,0011,-0.59,3.04,3.0967,349.0166
1988-07-22 02:30:00 UTC,2447364.604167,28.3100,-92.0967,0011,-3.01,5.42,6.1997,330.9544
1988-07-22 03:00:00 UTC,2447364.625000,28.3100,-92.0967,0011,-3.00,6.43,7.0954,334.9880
1988-07-22 03:30:00 UTC,2447364.645833,28.3100,-92.0967,0011,-4.14,11.37,12.1003,339.9926
1988-07-22 04:00:00 UTC,2447364.666667,28.3100,-92.0967,0011,-6.12,17.78,18.8038,341.0062
1988-07-22 04:30:00 UTC,2447364.687500,28.3100,-92.0967,0011,-1.56,22.25,22.3046,355.9894
1988-07-22 05:00:00 UTC,2447364.708333,28.3100,-92.0967,0011,-0.38,21.80,21.8033,359.0014
1988-07-22 05:30:00 UTC,2447364.729167,28.3100,-92.0967,0011,0.00,24.40,24.4000,0.0000
1988-07-22 06:00:00 UTC,2447364.750000,28.3100,-92.0967,0011,-1.64,23.44,23.4973,355.9978
1988-07-22 06:30:00 UTC,2447364.770833,28.3100,-92.0967,0011,-1.91,21.82,21.9034,354.9974
1988-07-22 07:00:00 UTC,2447364.791667,28.3100,-92.0967,0011,-0.48,27.60,27.6042,359.0037
1988-07-22 07:30:00 UTC,2447364.812500,28.3100,-92.0967,0011,1.75,25.04,25.1011,3.9978
1988-07-22 08:00:00 UTC,2447364.833333,28.3100,-92.0967,0011,0.96,27.58,27.5967,1.9935
1988-07-22 08:30:00 UTC,2447364.854167,28.3100,-92.0967,0011,0.00,25.00,25.0000,0.0000
1988-07-22 09:00:00 UTC,2447364.875000,28.3100,-92.0967,0011,1.37,26.16,26.1958,2.9978
1988-07-22 09:30:00 UTC,2447364.895833,28.3100,-92.0967,0011,0.00,30.00,30.0000,0.0000
1988-07-22 10:00:00 UTC,2447364.916667,28.3100,-92.0967,0011,-1.55,29.56,29.6006,356.9984
1988-07-22 10:30:00 UTC,2447364.937500,28.3100,-92.0967,0011,2.61,29.79,29.9041,5.0071
1988-07-22 11:00:00 UTC,2447364.958333,28.3100,-92.0967,0011,5.97,30.72,31.2947,10.9975
1988-07-22 11:30:00 UTC,2447364.979167,28.3100,-92.0967,0011,6.34,29.83,30.4963,11.9990
1988-07-22 12:00:00 UTC,2447365.000000,28.3100,-92.0967,0011,8.53,26.25,27.6011,18.0017
1988-07-22 12:30:00 UTC,2447365.020833,28.3100,-92.0967,0011,10.20,24.03,26.1052,22.9997
1988-07-22 13:00:00 UTC,2447365.041667,28.3100,-92.0967,0011,11.05,22.65,25.2017,26.0058
1988-07-22 13:30:00 UTC,2447365.062500,28.3100,-92.0967,0011,8.06,12.41,14.7977,33.0028
1988-07-22 14:00:00 UTC,2447365.083333,28.3100,-92.0967,0011,10.77,13.79,17.4973,37.9899
1988-07-22 14:30:00 UTC,2447365.104167,28.3100,-92.0967,0011,7.39,8.81,11.4991,39.9906
1988-07-22 15:00:00 UTC,2447365.125000,28.3100,-92.0967,0011,2.97,2.97,4.2002,45.0000
1988-07-22 15:30:00 UTC,2447365.145833,28.3100,-92.0967,0011,10.92,9.84,14.6994,47.9780
1988-07-22 16:00:00 UTC,2447365.166667,28.3100,-92.0967,0011,10.39,6.00,11.9980,59.9945
1988-07-22 16:30:00 UTC,2447365.187500,28.3100,-92.0967,0011,9.79,0.34,9.7959,88.0109
1988-07-22 17:00:00 UTC,2447365.208333,28.3100,-92.0967,0011,16.20,0.28,16.2024,89.0098
1988-07-22 17:30:00 UTC,2447365.229167,28.3100,-92.0967,0011,13.17,0.92,13.2021,86.0041
1988-07-22 18:00:00 UTC,2447365.250000,28.3100,-92.0967,0011,9.03,-1.76,9.1999,101.0290
1988-07-22 18:30:00 UTC,2447365.270833,28.3100,-92.0967,0011,19.23,-1.68,19.3032,94.9929
1988-07-22 19:00:00 UTC,2447365.291667,28.3100,-92.0967,0011,8.00,0.14,8.0012,88.9974
1988-07-22 19:30:00 UTC,2447365.312500,28.3100,-92.0967,0011,5.20,0.18,5.2031,88.0175
1988-07-22 20:00:00 UTC,2447365.333333,28.3100,-92.0967,0011,11.59,-3.11,12.0000,105.0206
1988-07-22 20:30:00 UTC,2447365.354167,28.3100,-92.0967,0011,6.75,1.43,6.8998,78.0386
1988-07-22 21:00:00 UTC,2447365.375000,28.3100,-92.0967,0011,13.25,1.16,13.3007,84.9967
1988-07-22 21:30:00 UTC,2447365.395833,28.3100,-92.0967,0011,9.83,-1.21,9.9042,97.0174
1988-07-22 22:00:00 UTC,2447365.416667,28.3100,-92.0967,0011,0.78,0.78,1.1031,45.0000
1988-07-22 22:30:00 UTC,2447365.437500,28.3100,-92.0967,0011,1.42,1.81,2.3005,38.1153
1988-07-22 23:00:00 UTC,2447365.458333,28.3100,-92.0967,0011,-3.61,-0.83,3.7042,257.0518
1988-07-22 23:30:00 UTC,2447365.479167,28.3100,-92.0967,0011,0.63,3.95,3.9999,9.0620
1988-07-23 00:00:00 UTC,2447365.500000,28.3100,-92.0967,0011,3.00,6.43,7.0954,25.0120
1988-07-23 00:30:00 UTC,2447365.520833,28.3100,-92.0967,0011,0.99,3.04,3.1971,18.0382
1988-07-23 01:00:00 UTC,2447365.541667,28.3100,-92.0967,0011,1.79,4.02,4.4005,24.0021
1988-07-23 01:30:00 UTC,2447365.562500,28.3100,-92.0967,0011,5.35,4.03,6.6980,53.0103
1988-07-23 02:00:00 UTC,2447365.583333,28.3100,-92.0967,0011,6.34,1.82,6.5961,73.9830
1988-07-23 02:30:00 UTC,2447365.604167,28.3100,-92.0967,0011,6.20,2.26,6.5991,69.9724
1988-07-23 03:00:00 UTC,2447365.625000,28.3100,-92.0967,0011,-2.76,-1.41,3.0993,242.9389
1988-07-23 03:30:00 UTC,2447365.645833,28.3100,-92.0967,0011,2.39,1.02,2.5986,66.8883
1988-07-23 04:00:00 UTC,2447365.666667,28.3100,-92.0967,0011,-3.36,4.97,5.9992,325.9391
1988-07-23 04:30:00 UTC,2447365.687500,28.3100,-92.0967,0011,0.37,-4.18,4.1963,174.9415
1988-07-23 05:00:00 UTC,2447365.708333,28.3100,-92.0967,0011,-1.75,0.40,1.7951,282.8750
1988-07-23 05:30:00 UTC,2447365.729167,28.3100,-92.0967,0011,0.21,-0.21,0.2970,135.0000
1988-07-23 06:00:00 UTC,2447365.750000,28.3100,-92.0967,0011,-2.37,-0.38,2.4003,260.8909
1988-07-23 06:30:00 UTC,2447365.770833,28.3100,-92.0967,0011,-1.76,2.18,2.8018,321.0847
1988-07-23 07:00:00 UTC,2447365.791667,28.3100,-92.0967,0011,2.77,-0.39,2.7973,98.0142
1988-07-23 07:30:00 UTC,2447365.812500,28.3100,-92.0967,0011,-2.96,4.39,5.2947,326.0098
1988-07-23 08:00:00 UTC,2447365.833333,28.3100,-92.0967,0011,5.22,1.40,5.4045,74.9866
1988-07-23 08:30:00 UTC,2447365.854167,28.3100,-92.0967,0011,3.20,-1.42,3.5009,113.9293
1988-07-23 09:00:00 UTC,2447365.875000,28.3100,-92.0967,0011,-4.77,12.42,13.3045,338.9903
1988-07-23 09:30:00 UTC,2447365.895833,28.3100,-92.0967,0011,-2.45,17.43,17.6013,351.9988
1988-07-23 10:00:00 UTC,2447365.916667,28.3100,-92.0967,0011,-2.70,19.21,19.3988,351.9994
1988-07-23 10:30:00 UTC,2447365.937500,28.3100,-92.0967,0011,-2.28,18.56,18.6995,352.9966
1988-07-23 11:00:00 UTC,2447365.958333,28.3100,-92.0967,0011,2.90,23.62,23.7974,6.9996
1988-07-23 11:30:00 UTC,2447365.979167,28.3100,-92.0967,0011,4.88,21.14,21.6959,12.9986
1988-07-23 12:00:00 UTC,2447366.000000,28.3100,-92.0967,0011,1.70,19.43,19.5042,5.0003
1988-07-23 12:30:00 UTC,2447366.020833,28.3100,-92.0967,0011,1.01,28.98,28.9976,1.9960
1988-07-23 13:00:00 UTC,2447366.041667,28.3100,-92.0967,0011,-2.66,30.38,30.4962,354.9961
1988-07-23 13:30:00 UTC,2447366.062500,28.3100,-92.0967,0011,2.47,28.19,28.2980,5.0075
1988-07-23 14:00:00 UTC,2447366.083333,28.3100,-92.0967,0011,3.22,30.63,30.7988,6.0012
1988-07-23 14:30:00 UTC,2447366.104167,28.3100,-92.0967,0011,7.15,33.65,34.4012,11.9959
1988-07-23 15:00:00 UTC,2447366.125000,28.3100,-92.0967,0011,14.20,30.45,33.5983,25.0014
1988-07-23 15:30:00 UTC,2447366.145833,28.3100,-92.0967,0011,21.34,25.43,33.1976,40.0022
1988-07-23 16:00:00 UTC,2447366.166667,28.3100,-92.0967,0011,24.72,23.05,33.7991,47.0022
1988-07-23 16:30:00 UTC,2447366.187500,28.3100,-92.0967,0011,23.06,23.88,33.1967,43.9992
1988-07-23 17:00:00 UTC,2447366.208333,28.3100,-92.0967,0011,26.48,24.69,36.2048,47.0035
1988-07-23 17:30:00 UTC,2447366.229167,28.3100,-92.0967,0011,26.67,17.32,31.8005,56.9995
1988-07-23 18:00:00 UTC,2447366.250000,28.3100,-92.0967,0011,27.53,14.03,30.8989,62.9954
1988-07-23 18:30:00 UTC,2447366.270833,28.3100,-92.0967,0011,30.81,8.26,31.8980,74.9922
1988-07-23 19:00:00 UTC,2447366.291667,28.3100,-92.0967,0011,31.74,12.18,33.9968,69.0060
1988-07-23 19:30:00 UTC,2447366.312500,28.3100,-92.0967,0011,26.98,10.36,28.9007,68.9938
1988-07-23 20:00:00 UTC,2447366.333333,28.3100,-92.0967,0011,21.45,1.50,21.5024,85.9998
1988-07-23 20:30:00 UTC,2447366.354167,28.3100,-92.0967,0011,23.37,-2.46,23.4991,96.0090
1988-07-23 21:00:00 UTC,2447366.375000,28.3100,-92.0967,0011,19.56,-3.10,19.8041,99.0057
1988-07-23 21:30:00 UTC,2447366.395833,28.3100,-92.0967,0011,15.44,-1.35,15.4989,94.9970
1988-07-23 22:00:00 UTC,2447366.416667,28.3100,-92.0967,0011,17.80,-3.78,18.1969,101.9892
1988-07-23 22:30:00 UTC,2447366.437500,28.3100,-92.0967,0011,15.36,-2.71,15.5972,100.0059
1988-07-23 23:00:00 UTC,2447366.458333,28.3100,-92.0967,0011,10.19,-2.54,10.5018,103.9965
1988-07-23 23:30:00 UTC,2447366.479167,28.3100,-92.0967,0011,10.78,-5.49,12.0975,116.9887
1988-07-24 00:00:00 UTC,2447366.500000,28.3100,-92.0967,0011,11.63,-3.34,12.1001,106.0234
1988-07-24 00:30:00 UTC,2447366.520833,28.3100,-92.0967,0011,4.99,-2.76,5.7024,118.9472
1988-07-24 01:00:00 UTC,2447366.541667,28.3100,-92.0967,0011,6.82,-1.96,7.0961,106.0341
1988-07-24 01:30:00 UTC,2447366.562500,28.3100,-92.0967,0011,3.04,0.99,3.1971,71.9617
1988-07-24 02:00:00 UTC,2447366.583333,28.3100,-92.0967,0011,8.77,-0.77,8.8037,95.0177
1988-07-24 02:30:00 UTC,2447366.604167,28.3100,-92.0967,0011,-1.83,-0.81,2.0012,246.1247
1988-07-24 03:00:00 UTC,2447366.625000,28.3100,-92.0967,0011,2.43,0.60,2.5030,76.1303
1988-07-24 03:30:00 UTC,2447366.645833,28.3100,-92.0967,0011,-0.61,2.01,2.1005,343.1179
1988-07-24 04:00:00 UTC,2447366.666667,28.3100,-92.0967,0011,-2.37,1.99,3.0947,310.0189
1988-07-24 04:30:00 UTC,2447366.687500,28.3100,-92.0967,0011,0.58,-0.39,0.6989,123.9174
1988-07-24 05:00:00 UTC,2447366.708333,28.3100,-92.0967,0011,-5.99,1.95,6.2994,288.0323
1988-07-24 05:30:00 UTC,2447366.729167,28.3100,-92.0967,0011,4.75,1.19,4.8968,75.9354
1988-07-24 06:00:00 UTC,2447366.750000,28.3100,-92.0967,0011,3.22,2.01,3.7959,58.0266
1988-07-24 06:30:00 UTC,2447366.770833,28.3100,-92.0967,0011,17.43,1.53,17.4970,84.9835
1988-07-24 07:00:00 UTC,2447366.791667,28.3100,-92.0967,0011,18.80,1.98,18.9040,83.9878
1988-07-24 07:30:00 UTC,2447366.812500,28.3100,-92.0967,0011,22.23,2.73,22.3970,82.9987
1988-07-24 08:00:00 UTC,2447366.833333,28.3100,-92.0967,0011,18.61,3.28,18.8968,80.0043
1988-07-24 08:30:00 UTC,2447366.854167,28.3100,-92.0967,0011,18.99,0.66,19.0015,88.0095
1988-07-24 09:00:00 UTC,2447366.875000,28.3100,-92.0967,0011,12.42,5.79,13.7033,65.0058
1988-07-24 09:30:00 UTC,2447366.895833,28.3100,-92.0967,0011,16.06,6.16,17.2008,69.0151
1988-07-24 10:00:00 UTC,2447366.916667,28.3100,-92.0967,0011,23.03,2.83,23.2032,82.9944
1988-07-24 10:30:00 UTC,2447366.937500,28.3100,-92.0967,0011,26.20,3.22,26.3971,82.9934
1988-07-24 11:00:00 UTC,2447366.958333,28.3100,-92.0967,0011,21.34,4.93,21.9021,76.9917
1988-07-24 11:30:00 UTC,2447366.979167,28.3100,-92.0967,0011,15.19,1.86,15.3035,83.0189
1988-07-24 12:00:00 UTC,2447367.000000,28.3100,-92.0967,0011,15.67,4.49,16.3006,74.0111
1988-07-24 12:30:00 UTC,2447367.020833,28.3100,-92.0967,0011,15.95,6.44,17.2010,68.0130
1988-07-24 13:00:00 UTC,2447367.041667,28.3100,-92.0967,0011,21.84,7.52,23.0984,71.0003
1988-07-24 13:30:00 UTC,2447367.062500,28.3100,-92.0967,0011,11.96,4.83,12.8985,68.0089
1988-07-24 14:00:00 UTC,2447367.083333,28.3100,-92.0967,0011,16.77,7.82,18.5037,64.9999
1988-07-24 14:30:00 UTC,2447367.104167,28.3100,-92.0967,0011,20.80,8.83,22.5967,66.9978
1988-07-24 15:00:00 UTC,2447367.125000,28.3100,-92.0967,0011,19.97,6.49,20.9981,71.9965
1988-07-24 15:30:00 UTC,2447367.145833,28.3100,-92.0967,0011,19.61,5.25,20.3006,75.0122
1988-07-24 16:00:00 UTC,2447367.166667,28.3100,-92.0967,0011,19.36,3.07,19.6019,80.9894
1988-07-24 16:30:00 UTC,2447367.187500,28.3100,-92.0967,0011,16.54,-2.32,16.7019,97.9846
1988-07-24 17:00:00 UTC,2447367.208333,28.3100,-92.0967,0011,10.23,-2.36,10.4987,102.9905
1988-07-24 17:30:00 UTC,2447367.229167,28.3100,-92.0967,0011,19.42,-5.20,20.1041,104.9902
1988-07-24 18:00:00 UTC,2447367.250000,28.3100,-92.0967,0011,22.92,-11.18,25.5013,116.0024
1988-07-24 18:30:00 UTC,2447367.270833,28.3100,-92.0967,0011,27.34,-7.32,28.3030,104.9888
1988-07-24 19:00:00 UTC,2447367.291667,28.3100,-92.0967,0011,23.74,-9.59,25.6038,111.9967
1988-07-24 19:30:00 UTC,2447367.312500,28.3100,-92.0967,0011,22.43,-11.92,25.4006,117.9876
1988-07-24 20:00:00 UTC,2447367.333333,28.3100,-92.0967,0011,20.89,-14.09,25.1976,123.9991
1988-07-24 20:30:00 UTC,2447367.354167,28.3100,-92.0967,0011,11.35,-13.06,17.3028,139.0072
1988-07-24 21:00:00 UTC,2447367.375000,28.3100,-92.0967,0011,8.17,-16.04,18.0008,153.0079
1988-07-24 21:30:00 UTC,2447367.395833,28.3100,-92.0967,0011,2.47,-13.98,14.1965,169.9803
1988-07-24 22:00:00 UTC,2447367.416667,28.3100,-92.0967,0011,8.72,-32.55,33.6978,165.0029
1988-07-24 22:30:00 UTC,2447367.437500,28.3100,-92.0967,0011,6.22,-32.00,32.5989,169.0003
1988-07-24 23:00:00 UTC,2447367.458333,28.3100,-92.0967,0011,3.68,-35.01,35.2029,173.9995
1988-07-24 23:30:00 UTC,2447367.479167,28.3100,-92.0967,0011,3.47,-33.02,33.2018,174.0009
1988-07-25 00:00:00 UTC,2447367.500000,28.3100,-92.0967,0011,-0.60,-34.39,34.3952,180.9995
1988-07-25 00:30:00 UTC,2447367.520833,28.3100,-92.0967,0011,-1.77,-33.75,33.7964,183.0021
1988-07-25 01:00:00 UTC,2447367.541667,28.3100,-92.0967,0011,-4.73,-33.67,34.0006,187.9967
1988-07-25 01:30:00 UTC,2447367.562500,28.3100,-92.0967,0011,-7.86,-31.53,32.4949,193.9978
1988-07-25 02:00:00 UTC,2447367.583333,28.3100,-92.0967,0011,-11.68,-27.52,29.8960,202.9973
1988-07-25 02:30:00 UTC,2447367.604167,28.3100,-92.0967,0011,-13.39,-22.29,26.0026,210.9940
1988-07-25 03:00:00 UTC,2447367.625000,28.3100,-92.0967,0011,-11.89,-10.71,16.0024,227.9888
1988-07-25 03:30:00 UTC,2447367.645833,28.3100,-92.0967,0011,-9.56,-6.21,11.3999,236.9930
1988-07-25 04:00:00 UTC,2447367.666667,28.3100,-92.0967,0011,-3.77,-1.60,4.0955,247.0035
1988-07-25 04:30:00 UTC,2447367.687500,28.3100,-92.0967,0011,-1.02,1.84,2.1038,330.9983
1988-07-25 05:00:00 UTC,2447367.708333,28.3100,-92.0967,0011,-1.16,0.78,1.3979,303.9174
1988-07-25 05:30:00 UTC,2447367.729167,28.3100,-92.0967,0011,3.25,2.82,4.3029,49.0521
1988-07-25 06:00:00 UTC,2447367.750000,28.3100,-92.0967,0011,-3.18,0.39,3.2038,276.9919
1988-07-25 06:30:00 UTC,2447367.770833,28.3100,-92.0967,0011,1.58,1.38,2.0978,48.8655
1988-07-25 07:00:00 UTC,2447367.791667,28.3100,-92.0967,0011,-1.20,-0.00,1.2000,270.0000
1988-07-25 07:30:00 UTC,2447367.812500,28.3100,-92.0967,0011,11.20,0.00,11.2000,90.0000
1988-07-25 08:00:00 UTC,2447367.833333,28.3100,-92.0967,0011,1.23,-2.41,2.7057,152.9614
1988-07-25 08:30:00 UTC,2447367.854167,28.3100,-92.0967,0011,0.19,-1.59,1.6013,173.1856
1988-07-25 09:00:00 UTC,2447367.875000,28.3100,-92.0967,0011,-0.22,3.19,3.1976,356.0548
1988-07-25 09:30:00 UTC,2447367.895833,28.3100,-92.0967,0011,0.96,5.42,5.5044,10.0442
1988-07-25 10:00:00 UTC,2447367.916667,28.3100,-92.0967,0011,5.38,14.00,14.9981,21.0211
1988-07-25 10:30:00 UTC,2447367.937500,28.3100,-92.0967,0011,5.53,12.42,13.5955,24.0010
1988-07-25 11:00:00 UTC,2447367.958333,28.3100,-92.0967,0011,8.52,23.40,24.9028,20.0067
1988-07-25 11:30:00 UTC,2447367.979167,28.3100,-92.0967,0011,9.42,20.21,22.2975,24.9905
1988-07-25 12:00:00 UTC,2447368.000000,28.3100,-92.0967,0011,11.92,19.08,22.4974,31.9946
1988-07-25 12:30:00 UTC,2447368.020833,28.3100,-92.0967,0011,12.25,18.16,21.9054,34.0020
1988-07-25 13:00:00 UTC,2447368.041667,28.3100,-92.0967,0011,15.14,14.12,20.7025,46.9965
1988-07-25 13:30:00 UTC,2447368.062500,28.3100,-92.0967,0011,14.66,10.27,17.8994,54.9870
1988-07-25 14:00:00 UTC,2447368.083333,28.3100,-92.0967,0011,14.39,7.65,16.2971,62.0040
1988-07-25 14:30:00 UTC,2447368.104167,28.3100,-92.0967,0011,17.83,6.84,19.0970,69.0120
1988-07-25 15:00:00 UTC,2447368.125000,28.3100,-92.0967,0011,12.65,3.39,13.0964,74.9981
1988-07-25 15:30:00 UTC,2447368.145833,28.3100,-92.0967,0011,26.20,3.22,26.3971,82.9934
1988-07-25 16:00:00 UTC,2447368.166667,28.3100,-92.0967,0011,26.40,0.00,26.4000,90.0000
1988-07-25 16:30:00 UTC,2447368.187500,28.3100,-92.0967,0011,22.42,-3.55,22.6993,98.9976
1988-07-25 17:00:00 UTC,2447368.208333,28.3100,-92.0967,0011,27.18,-0.95,27.1966,92.0018
1988-07-25 17:30:00 UTC,2447368.229167,28.3100,-92.0967,0011,26.16,-1.37,26.1958,92.9978
1988-07-25 18:00:00 UTC,2447368.250000,28.3100,-92.0967,0011,25.64,-1.79,25.7024,93.9935
1988-07-25 18:30:00 UTC,2447368.270833,28.3100,-92.0967,0011,29.64,-3.11,29.8027,95.9899
1988-07-25 19:00:00 UTC,2447368.291667,28.3100,-92.0967,0011,30.80,-4.33,31.1029,98.0024
1988-07-25 19:30:00 UTC,2447368.312500,28.3100,-92.0967,0011,29.64,-6.30,30.3021,101.9997
1988-07-25 20:00:00 UTC,2447368.333333,28.3100,-92.0967,0011,30.21,-6.97,31.0036,102.9918
1988-07-25 20:30:00 UTC,2447368.354167,28.3100,-92.0967,0011,30.23,-8.10,31.2964,104.9998
1988-07-25 21:00:00 UTC,2447368.375000,28.3100,-92.0967,0011,28.34,-9.21,29.7990,108.0032
1988-07-25 21:30:00 UTC,2447368.395833,28.3100,-92.0967,0011,21.75,-8.35,23.2977,111.0022
1988-07-25 22:00:00 UTC,2447368.416667,28.3100,-92.0967,0011,22.76,-6.96,23.8004,107.0036
1988-07-25 22:30:00 UTC,2447368.437500,28.3100,-92.0967,0011,26.41,-5.13,26.9036,100.9925
1988-07-25 23:00:00 UTC,2447368.458333,28.3100,-92.0967,0011,11.98,-2.33,12.2045,101.0061
1988-07-25 23:30:00 UTC,2447368.479167,28.3100,-92.0967,0011,12.99,-0.45,12.9978,91.9840
1988-07-26 00:00:00 UTC,2447368.500000,28.3100,-92.0967,0011,11.79,3.83,12.3965,72.0035
1988-07-26 00:30:00 UTC,2447368.520833,28.3100,-92.0967,0011,2.59,0.18,2.5962,86.0244
1988-07-26 01:00:00 UTC,2447368.541667,28.3100,-92.0967,0011,3.04,0.59,3.0967,79.0166
1988-07-26 01:30:00 UTC,2447368.562500,28.3100,-92.0967,0011,-1.60,1.20,2.0000,306.8699
1988-07-26 02:00:00 UTC,2447368.583333,28.3100,-92.0967,0011,-1.16,0.78,1.3979,303.9174
1988-07-26 02:30:00 UTC,2447368.604167,28.3100,-92.0967,0011,-1.60,-0.82,1.7979,242.8649
1988-07-26 03:00:00 UTC,2447368.625000,28.3100,-92.0967,0011,0.00,2.60,2.6000,0.0000
1988-07-26 03:30:00 UTC,2447368.645833,28.3100,-92.0967,0011,1.19,4.44,4.5967,15.0037
1988-07-26 04:00:00 UTC,2447368.666667,28.3100,-92.0967,0011,1.61,3.99,4.3026,21.9745
1988-07-26 04:30:00 UTC,2447368.687500,28.3100,-92.0967,0011,8.92,10.26,13.5954,41.0036
1988-07-26 05:00:00 UTC,2447368.708333,28.3100,-92.0967,0011,5.35,6.61,8.5038,38.9860
1988-07-26 05:30:00 UTC,2447368.729167,28.3100,-92.0967,0011,6.63,5.00,8.3040,52.9783
1988-07-26 06:00:00 UTC,2447368.750000,28.3100,-92.0967,0011,14.70,7.49,16.4982,63.0001
1988-07-26 06:30:00 UTC,2447368.770833,28.3100,-92.0967,0011,2.58,3.19,4.1027,38.9651
1988-07-26 07:00:00 UTC,2447368.791667,28.3100,-92.0967,0011,9.60,5.77,11.2006,58.9924
1988-07-26 07:30:00 UTC,2447368.812500,28.3100,-92.0967,0011,8.75,6.83,11.1001,52.0254
1988-07-26 08:00:00 UTC,2447368.833333,28.3100,-92.0967,0011,9.07,8.16,12.2004,48.0233
1988-07-26 08:30:00 UTC,2447368.854167,28.3100,-92.0967,0011,7.34,10.49,12.8030,34.9810
1988-07-26 09:00:00 UTC,2447368.875000,28.3100,-92.0967,0011,12.31,13.67,18.3958,42.0034
1988-07-26 09:30:00 UTC,2447368.895833,28.3100,-92.0967,0011,16.45,12.40,20.6001,52.9910
1988-07-26 10:00:00 UTC,2447368.916667,28.3100,-92.0967,0011,19.47,17.53,26.1989,48.0014
1988-07-26 10:30:00 UTC,2447368.937500,28.3100,-92.0967,0011,19.17,17.26,25.7953,48.0012
1988-07-26 11:00:00 UTC,2447368.958333,28.3100,-92.0967,0011,22.60,21.07,30.8983,47.0066
1988-07-26 11:30:00 UTC,2447368.979167,28.3100,-92.0967,0011,22.80,22.02,31.6973,45.9970
1988-07-26 12:00:00 UTC,2447369.000000,28.3100,-92.0967,0011,19.45,20.14,27.9986,44.0015
1988-07-26 12:30:00 UTC,2447369.020833,28.3100,-92.0967,0011,22.51,23.31,32.4046,43.9997
1988-07-26 13:00:00 UTC,2447369.041667,28.3100,-92.0967,0011,23.38,22.58,32.5035,45.9972